Time,TemperatureF,DewpointF,PressureIn,WindDirection,WindDirectionDegrees,WindSpeedMPH,WindSpeedGustMPH,Humidity,HourlyPrecipIn,Conditions,Clouds,dailyrainin,SoftwareType,DateUTC
2013-07-19 00:02:00,82.0,70.0,29.69,North,-999,0.0,-999.0,68,-99.99,,,-99.99,,2013-07-19 05:02:00,
2013-07-19 00:11:00,82.0,70.0,29.69,North,-999,0.0,-999.0,68,-99.99,,,-99.99,,2013-07-19 05:11:00,
2013-07-19 00:22:00,82.0,70.0,29.69,North,-999,0.0,-999.0,68,-99.99,,,-99.99,,2013-07-19 05:22:00,
2013-07-19 00:32:00,82.0,70.0,29.69,North,-999,0.0,-999.0,68,-99.99,,,-99.99,,2013-07-19 05:32:00,
2013-07-19 00:43:00,81.0,70.0,29.68,North,-999,0.0,-999.0,69,-99.99,,,-99.99,,2013-07-19 05:43:00,
2013-07-19 00:53:00,81.0,70.0,29.68,North,-999,0.0,-999.0,69,-99.99,,,-99.99,,2013-07-19 05:53:00,
2013-07-19 01:01:00,81.0,70.0,29.68,North,-999,0.0,-999.0,70,-99.99,,,-99.99,,2013-07-19 06:01:00,
2013-07-19 01:11:00,81.0,70.0,29.67,North,-999,0.0,-999.0,70,-99.99,,,-99.99,,2013-07-19 06:11:00,
2013-07-19 01:22:00,81.0,70.0,29.67,North,-999,0.0,-999.0,70,-99.99,,,-99.99,,2013-07-19 06:22:00,
2013-07-19 01:33:00,81.0,70.0,29.67,North,-999,0.0,-999.0,70,-99.99,,,-99.99,,2013-07-19 06:33:00,
2013-07-19 01:43:00,81.0,70.0,29.67,North,-999,0.0,-999.0,70,-99.99,,,-99.99,,2013-07-19 06:43:00,
2013-07-19 01:52:00,81.0,70.0,29.67,North,-999,0.0,-999.0,70,-99.99,,,-99.99,,2013-07-19 06:52:00,
2013-07-19 02:01:00,81.0,71.0,29.66,North,-999,0.0,-999.0,71,-99.99,,,-99.99,,2013-07-19 07:01:00,
2013-07-19 02:12:00,80.0,70.0,29.67,North,-999,0.0,-999.0,72,-99.99,,,-99.99,,2013-07-19 07:12:00,
2013-07-19 02:22:00,80.0,70.0,29.67,North,-999,0.0,-999.0,72,-99.99,,,-99.99,,2013-07-19 07:22:00,
2013-07-19 02:32:00,80.0,70.0,29.67,North,-999,0.0,-999.0,72,-99.99,,,-99.99,,2013-07-19 07:32:00,
2013-07-19 02:43:00,80.0,70.0,29.66,North,-999,0.0,-999.0,72,-99.99,,,-99.99,,2013-07-19 07:43:00,
2013-07-19 02:53:00,80.0,70.0,29.66,North,-999,0.0,-999.0,72,-99.99,,,-99.99,,2013-07-19 07:53:00,
2013-07-19 03:01:00,80.0,70.0,29.65,North,-999,0.0,-999.0,72,-99.99,,,-99.99,,2013-07-19 08:01:00,
2013-07-19 03:11:00,80.0,70.0,29.65,North,-999,0.0,-999.0,72,-99.99,,,-99.99,,2013-07-19 08:11:00,
2013-07-19 03:22:00,80.0,70.0,29.65,North,-999,0.0,-999.0,72,-99.99,,,-99.99,,2013-07-19 08:22:00,
2013-07-19 03:32:00,80.0,70.0,29.65,North,-999,0.0,-999.0,72,-99.99,,,-99.99,,2013-07-19 08:32:00,
2013-07-19 03:43:00,80.0,70.0,29.65,North,-999,0.0,-999.0,72,-99.99,,,-99.99,,2013-07-19 08:43:00,
2013-07-19 03:52:00,80.0,70.0,29.65,North,-999,0.0,-999.0,72,-99.99,,,-99.99,,2013-07-19 08:52:00,
2013-07-19 04:02:00,79.0,70.0,29.65,North,-999,0.0,-999.0,73,-99.99,,,-99.99,,2013-07-19 09:02:00,
2013-07-19 04:11:00,79.0,70.0,29.65,North,-999,0.0,-999.0,75,-99.99,,,-99.99,,2013-07-19 09:11:00,
2013-07-19 04:22:00,79.0,70.0,29.65,North,-999,0.0,-999.0,75,-99.99,,,-99.99,,2013-07-19 09:22:00,
2013-07-19 04:32:00,78.0,70.0,29.65,North,-999,0.0,-999.0,76,-99.99,,,-99.99,,2013-07-19 09:32:00,
2013-07-19 04:43:00,78.0,70.0,29.66,North,-999,0.0,-999.0,77,-99.99,,,-99.99,,2013-07-19 09:43:00,
2013-07-19 04:52:00,78.0,70.0,29.66,North,-999,0.0,-999.0,77,-99.99,,,-99.99,,2013-07-19 09:52:00,
2013-07-19 05:01:00,77.0,70.0,29.66,North,-999,0.0,-999.0,78,-99.99,,,-99.99,,2013-07-19 10:01:00,
2013-07-19 05:11:00,77.0,70.0,29.66,North,-999,0.0,-999.0,79,-99.99,,,-99.99,,2013-07-19 10:11:00,
2013-07-19 05:22:00,77.0,70.0,29.66,North,-999,0.0,-999.0,79,-99.99,,,-99.99,,2013-07-19 10:22:00,
2013-07-19 05:32:00,76.0,70.0,29.66,North,-999,0.0,-999.0,81,-99.99,,,-99.99,,2013-07-19 10:32:00,
2013-07-19 05:43:00,76.0,70.0,29.67,North,-999,0.0,-999.0,82,-99.99,,,-99.99,,2013-07-19 10:43:00,
2013-07-19 05:52:00,76.0,70.0,29.67,North,-999,0.0,-999.0,82,-99.99,,,-99.99,,2013-07-19 10:52:00,
2013-07-19 06:02:00,75.0,69.0,29.68,North,-999,0.0,-999.0,82,-99.99,,,-99.99,,2013-07-19 11:02:00,
2013-07-19 06:12:00,75.0,69.0,29.70,North,-999,0.0,-999.0,82,-99.99,,,-99.99,,2013-07-19 11:12:00,
2013-07-19 06:22:00,75.0,69.0,29.70,North,-999,0.0,-999.0,82,-99.99,,,-99.99,,2013-07-19 11:22:00,
2013-07-19 06:33:00,75.0,69.0,29.70,North,-999,0.0,-999.0,82,-99.99,,,-99.99,,2013-07-19 11:33:00,
2013-07-19 06:43:00,75.0,69.0,29.70,North,-999,0.0,-999.0,81,-99.99,,,-99.99,,2013-07-19 11:43:00,
2013-07-19 06:52:00,75.0,69.0,29.70,North,-999,0.0,-999.0,81,-99.99,,,-99.99,,2013-07-19 11:52:00,
2013-07-19 07:01:00,75.0,68.0,29.71,North,-999,0.0,-999.0,80,-99.99,,,-99.99,,2013-07-19 12:01:00,
2013-07-19 07:12:00,75.0,68.0,29.71,North,-999,0.0,-999.0,78,-99.99,,,-99.99,,2013-07-19 12:12:00,
2013-07-19 07:22:00,75.0,68.0,29.71,North,-999,0.0,-999.0,78,-99.99,,,-99.99,,2013-07-19 12:22:00,
2013-07-19 07:33:00,75.0,67.0,29.71,North,-999,0.0,-999.0,76,-99.99,,,-99.99,,2013-07-19 12:33:00,
2013-07-19 07:43:00,75.0,67.0,29.70,North,-999,0.0,-999.0,75,-99.99,,,-99.99,,2013-07-19 12:43:00,
2013-07-19 07:52:00,75.0,67.0,29.70,North,-999,0.0,-999.0,75,-99.99,,,-99.99,,2013-07-19 12:52:00,
2013-07-19 08:02:00,75.0,66.0,29.71,North,-999,0.0,-999.0,73,-99.99,,,-99.99,,2013-07-19 13:02:00,
2013-07-19 08:12:00,75.0,65.0,29.72,North,-999,0.0,-999.0,71,-99.99,,,-99.99,,2013-07-19 13:12:00,
2013-07-19 08:22:00,75.0,65.0,29.72,North,-999,0.0,-999.0,71,-99.99,,,-99.99,,2013-07-19 13:22:00,
2013-07-19 08:32:00,75.0,65.0,29.72,North,-999,0.0,-999.0,71,-99.99,,,-99.99,,2013-07-19 13:32:00,
2013-07-19 08:43:00,75.0,65.0,29.73,North,-999,0.0,-999.0,70,-99.99,,,-99.99,,2013-07-19 13:43:00,
2013-07-19 08:53:00,75.0,65.0,29.73,North,-999,0.0,-999.0,70,-99.99,,,-99.99,,2013-07-19 13:53:00,
2013-07-19 09:02:00,75.0,65.0,29.73,North,-999,0.0,-999.0,70,-99.99,,,-99.99,,2013-07-19 14:02:00,
2013-07-19 09:11:00,75.0,64.0,29.74,North,-999,0.0,-999.0,68,-99.99,,,-99.99,,2013-07-19 14:11:00,
2013-07-19 09:22:00,75.0,64.0,29.74,North,-999,0.0,-999.0,68,-99.99,,,-99.99,,2013-07-19 14:22:00,
2013-07-19 09:33:00,75.0,63.0,29.74,North,-999,0.0,-999.0,66,-99.99,,,-99.99,,2013-07-19 14:33:00,
2013-07-19 09:43:00,75.0,63.0,29.75,North,-999,0.0,-999.0,67,-99.99,,,-99.99,,2013-07-19 14:43:00,
2013-07-19 09:52:00,75.0,63.0,29.75,North,-999,0.0,-999.0,67,-99.99,,,-99.99,,2013-07-19 14:52:00,
2013-07-19 10:02:00,76.0,64.0,29.75,North,-999,0.0,-999.0,67,-99.99,,,-99.99,,2013-07-19 15:02:00,
2013-07-19 10:11:00,76.0,63.0,29.75,North,-999,0.0,-999.0,65,-99.99,,,-99.99,,2013-07-19 15:11:00,
2013-07-19 10:23:00,76.0,63.0,29.75,North,-999,0.0,-999.0,65,-99.99,,,-99.99,,2013-07-19 15:23:00,
2013-07-19 10:32:00,76.0,62.0,29.76,North,-999,0.0,-999.0,63,-99.99,,,-99.99,,2013-07-19 15:32:00,
2013-07-19 10:43:00,77.0,64.0,29.76,North,-999,0.0,-999.0,64,-99.99,,,-99.99,,2013-07-19 15:43:00,
2013-07-19 10:52:00,77.0,64.0,29.76,North,-999,0.0,-999.0,64,-99.99,,,-99.99,,2013-07-19 15:52:00,
2013-07-19 11:01:00,77.0,65.0,29.77,North,-999,0.0,-999.0,66,-99.99,,,-99.99,,2013-07-19 16:01:00,
2013-07-19 11:11:00,77.0,64.0,29.78,North,-999,0.0,-999.0,64,-99.99,,,-99.99,,2013-07-19 16:11:00,
2013-07-19 11:22:00,77.0,64.0,29.78,North,-999,0.0,-999.0,64,-99.99,,,-99.99,,2013-07-19 16:22:00,
2013-07-19 11:32:00,77.0,63.0,29.78,North,-999,0.0,-999.0,62,-99.99,,,-99.99,,2013-07-19 16:32:00,
2013-07-19 11:43:00,77.0,63.0,29.78,North,-999,0.0,-999.0,63,-99.99,,,-99.99,,2013-07-19 16:43:00,
2013-07-19 11:52:00,77.0,63.0,29.78,North,-999,0.0,-999.0,63,-99.99,,,-99.99,,2013-07-19 16:52:00,
2013-07-19 12:02:00,77.0,64.0,29.79,North,-999,0.0,-999.0,64,-99.99,,,-99.99,,2013-07-19 17:02:00,
2013-07-19 12:12:00,77.0,63.0,29.79,North,-999,0.0,-999.0,63,-99.99,,,-99.99,,2013-07-19 17:12:00,
2013-07-19 12:22:00,77.0,63.0,29.79,North,-999,0.0,-999.0,63,-99.99,,,-99.99,,2013-07-19 17:22:00,
2013-07-19 12:32:00,77.0,63.0,29.80,North,-999,0.0,-999.0,62,-99.99,,,-99.99,,2013-07-19 17:32:00,
2013-07-19 12:43:00,77.0,63.0,29.80,North,-999,0.0,-999.0,62,-99.99,,,-99.99,,2013-07-19 17:43:00,
2013-07-19 12:52:00,77.0,63.0,29.80,North,-999,0.0,-999.0,62,-99.99,,,-99.99,,2013-07-19 17:52:00,
2013-07-19 13:01:00,78.0,61.0,29.80,North,-999,0.0,-999.0,56,-99.99,,,-99.99,,2013-07-19 18:01:00,
2013-07-19 13:11:00,78.0,62.0,29.80,North,-999,0.0,-999.0,59,-99.99,,,-99.99,,2013-07-19 18:11:00,
2013-07-19 13:22:00,78.0,62.0,29.80,North,-999,0.0,-999.0,59,-99.99,,,-99.99,,2013-07-19 18:22:00,
2013-07-19 13:32:00,79.0,63.0,29.80,North,-999,0.0,-999.0,59,-99.99,,,-99.99,,2013-07-19 18:32:00,
2013-07-19 13:42:00,80.0,62.0,29.80,North,-999,0.0,-999.0,54,-99.99,,,-99.99,,2013-07-19 18:42:00,
2013-07-19 13:52:00,80.0,62.0,29.80,North,-999,0.0,-999.0,54,-99.99,,,-99.99,,2013-07-19 18:52:00,
2013-07-19 14:01:00,80.0,62.0,29.80,North,-999,0.0,-999.0,55,-99.99,,,-99.99,,2013-07-19 19:01:00,
2013-07-19 14:11:00,80.0,61.0,29.80,North,-999,0.0,-999.0,53,-99.99,,,-99.99,,2013-07-19 19:11:00,
2013-07-19 14:21:00,80.0,61.0,29.80,North,-999,0.0,-999.0,53,-99.99,,,-99.99,,2013-07-19 19:21:00,
2013-07-19 14:32:00,80.0,61.0,29.80,North,-999,0.0,-999.0,53,-99.99,,,-99.99,,2013-07-19 19:32:00,
2013-07-19 14:43:00,80.0,61.0,29.80,North,-999,0.0,-999.0,53,-99.99,,,-99.99,,2013-07-19 19:43:00,
2013-07-19 14:52:00,80.0,61.0,29.80,North,-999,0.0,-999.0,53,-99.99,,,-99.99,,2013-07-19 19:52:00,
2013-07-19 15:01:00,81.0,62.0,29.80,North,-999,0.0,-999.0,52,-99.99,,,-99.99,,2013-07-19 20:01:00,
2013-07-19 15:11:00,81.0,61.0,29.80,North,-999,0.0,-999.0,50,-99.99,,,-99.99,,2013-07-19 20:11:00,
2013-07-19 15:22:00,81.0,61.0,29.80,North,-999,0.0,-999.0,50,-99.99,,,-99.99,,2013-07-19 20:22:00,
2013-07-19 15:33:00,81.0,62.0,29.79,North,-999,0.0,-999.0,52,-99.99,,,-99.99,,2013-07-19 20:33:00,
2013-07-19 15:43:00,82.0,61.0,29.80,North,-999,0.0,-999.0,49,-99.99,,,-99.99,,2013-07-19 20:43:00,
2013-07-19 15:52:00,82.0,61.0,29.80,North,-999,0.0,-999.0,49,-99.99,,,-99.99,,2013-07-19 20:52:00,
2013-07-19 16:01:00,82.0,60.0,29.79,North,-999,0.0,-999.0,48,-99.99,,,-99.99,,2013-07-19 21:01:00,
2013-07-19 16:11:00,83.0,63.0,29.79,North,-999,0.0,-999.0,51,-99.99,,,-99.99,,2013-07-19 21:11:00,
2013-07-19 16:22:00,83.0,63.0,29.79,North,-999,0.0,-999.0,51,-99.99,,,-99.99,,2013-07-19 21:22:00,
2013-07-19 16:32:00,82.0,60.0,29.79,North,-999,0.0,-999.0,48,-99.99,,,-99.99,,2013-07-19 21:32:00,
2013-07-19 16:42:00,83.0,62.0,29.80,North,-999,0.0,-999.0,50,-99.99,,,-99.99,,2013-07-19 21:42:00,
2013-07-19 16:52:00,83.0,62.0,29.80,North,-999,0.0,-999.0,50,-99.99,,,-99.99,,2013-07-19 21:52:00,
2013-07-19 17:01:00,82.0,62.0,29.79,North,-999,0.0,-999.0,51,-99.99,,,-99.99,,2013-07-19 22:01:00,
2013-07-19 17:11:00,83.0,61.0,29.79,North,-999,0.0,-999.0,48,-99.99,,,-99.99,,2013-07-19 22:11:00,
2013-07-19 17:21:00,83.0,61.0,29.79,North,-999,0.0,-999.0,48,-99.99,,,-99.99,,2013-07-19 22:21:00,
2013-07-19 17:32:00,82.0,61.0,29.79,North,-999,0.0,-999.0,50,-99.99,,,-99.99,,2013-07-19 22:32:00,
2013-07-19 17:42:00,83.0,61.0,29.79,North,-999,0.0,-999.0,48,-99.99,,,-99.99,,2013-07-19 22:42:00,
2013-07-19 17:52:00,83.0,61.0,29.79,North,-999,0.0,-999.0,48,-99.99,,,-99.99,,2013-07-19 22:52:00,
2013-07-19 18:01:00,82.0,60.0,29.79,North,-999,0.0,-999.0,48,-99.99,,,-99.99,,2013-07-19 23:01:00,
2013-07-19 18:11:00,82.0,61.0,29.79,North,-999,0.0,-999.0,50,-99.99,,,-99.99,,2013-07-19 23:11:00,
2013-07-19 18:21:00,82.0,61.0,29.79,North,-999,0.0,-999.0,50,-99.99,,,-99.99,,2013-07-19 23:21:00,
2013-07-19 18:33:00,83.0,62.0,29.78,North,-999,0.0,-999.0,50,-99.99,,,-99.99,,2013-07-19 23:33:00,
2013-07-19 18:43:00,82.0,60.0,29.78,North,-999,0.0,-999.0,48,-99.99,,,-99.99,,2013-07-19 23:43:00,
2013-07-19 18:52:00,82.0,60.0,29.78,North,-999,0.0,-999.0,48,-99.99,,,-99.99,,2013-07-19 23:52:00,
2013-07-19 19:01:00,82.0,62.0,29.78,North,-999,0.0,-999.0,51,-99.99,,,-99.99,,2013-07-20 00:01:00,
2013-07-19 19:11:00,81.0,62.0,29.78,North,-999,0.0,-999.0,52,-99.99,,,-99.99,,2013-07-20 00:11:00,
2013-07-19 19:22:00,81.0,62.0,29.78,North,-999,0.0,-999.0,52,-99.99,,,-99.99,,2013-07-20 00:22:00,
2013-07-19 19:32:00,81.0,62.0,29.78,North,-999,0.0,-999.0,53,-99.99,,,-99.99,,2013-07-20 00:32:00,
2013-07-19 19:43:00,80.0,61.0,29.78,North,-999,0.0,-999.0,53,-99.99,,,-99.99,,2013-07-20 00:43:00,
2013-07-19 19:52:00,80.0,61.0,29.78,North,-999,0.0,-999.0,53,-99.99,,,-99.99,,2013-07-20 00:52:00,
2013-07-19 20:01:00,80.0,62.0,29.78,North,-999,0.0,-999.0,54,-99.99,,,-99.99,,2013-07-20 01:01:00,
2013-07-19 20:11:00,79.0,62.0,29.78,North,-999,0.0,-999.0,56,-99.99,,,-99.99,,2013-07-20 01:11:00,
2013-07-19 20:22:00,79.0,62.0,29.78,North,-999,0.0,-999.0,56,-99.99,,,-99.99,,2013-07-20 01:22:00,
2013-07-19 20:32:00,78.0,62.0,29.78,North,-999,0.0,-999.0,58,-99.99,,,-99.99,,2013-07-20 01:32:00,
2013-07-19 20:52:00,76.0,61.0,29.78,North,-999,0.0,-999.0,60,-99.99,,,-99.99,,2013-07-20 01:52:00,
2013-07-19 21:02:00,76.0,61.0,29.78,North,-999,0.0,-999.0,60,-99.99,,,-99.99,,2013-07-20 02:02:00,
2013-07-19 21:11:00,75.0,63.0,29.79,North,-999,0.0,-999.0,66,-99.99,,,-99.99,,2013-07-20 02:11:00,
2013-07-19 21:22:00,75.0,63.0,29.79,North,-999,0.0,-999.0,66,-99.99,,,-99.99,,2013-07-20 02:22:00,
2013-07-19 21:33:00,74.0,63.0,29.79,North,-999,0.0,-999.0,68,-99.99,,,-99.99,,2013-07-20 02:33:00,
2013-07-19 21:43:00,73.0,62.0,29.80,North,-999,0.0,-999.0,68,-99.99,,,-99.99,,2013-07-20 02:43:00,
2013-07-19 21:52:00,73.0,62.0,29.80,North,-999,0.0,-999.0,68,-99.99,,,-99.99,,2013-07-20 02:52:00,
2013-07-19 22:02:00,73.0,62.0,29.80,North,-999,0.0,-999.0,69,-99.99,,,-99.99,,2013-07-20 03:02:00,
2013-07-19 22:11:00,73.0,63.0,29.81,North,-999,0.0,-999.0,70,-99.99,,,-99.99,,2013-07-20 03:11:00,
2013-07-19 22:22:00,73.0,63.0,29.81,North,-999,0.0,-999.0,70,-99.99,,,-99.99,,2013-07-20 03:22:00,
2013-07-19 22:32:00,73.0,63.0,29.82,North,-999,0.0,-999.0,70,-99.99,,,-99.99,,2013-07-20 03:32:00,
2013-07-19 22:44:00,73.0,63.0,29.82,North,-999,0.0,-999.0,70,-99.99,,,-99.99,,2013-07-20 03:44:00,
2013-07-19 22:53:00,73.0,63.0,29.82,North,-999,0.0,-999.0,70,-99.99,,,-99.99,,2013-07-20 03:53:00,
2013-07-19 23:02:00,73.0,63.0,29.83,North,-999,0.0,-999.0,70,-99.99,,,-99.99,,2013-07-20 04:02:00,
2013-07-19 23:12:00,73.0,63.0,29.83,North,-999,0.0,-999.0,70,-99.99,,,-99.99,,2013-07-20 04:12:00,
2013-07-19 23:22:00,73.0,63.0,29.83,North,-999,0.0,-999.0,70,-99.99,,,-99.99,,2013-07-20 04:22:00,
2013-07-19 23:33:00,73.0,63.0,29.83,North,-999,0.0,-999.0,70,-99.99,,,-99.99,,2013-07-20 04:33:00,
2013-07-19 23:52:00,72.0,60.0,29.86,North,-999,0.0,-999.0,67,-99.99,,,-99.99,,2013-07-20 04:52:00,